Orbital Elements at Epoch 2459200.5 (2020-Dec-17.0) TDB
Reference: JPL 16 (heliocentric ecliptic J2000)
Element | Value | Uncertainty (1-sigma) | Units |
e | .08871461639955718 | 3.9128e-08 | |
a | 2.354428187820186 | 1.228e-08 | au |
q | 2.145555994297414 | 9.489e-08 | au |
i | 5.787833067422464 | 4.3689e-06 | deg |
node | 95.55689227098117 | 4.4749e-05 | deg |
peri | 310.6640149701208 | 5.2909e-05 | deg |
M | 293.3636972184125 | 2.8363e-05 | deg |
tp | 2459444.750235925565 (2021-Aug-18.25023593) | 0.00010453 | TDB |
period | 1319.552275002562 3.61 | 1.0324e-05 2.827e-08 | d yr |
n | .2728198092790989 | 2.1344e-09 | deg/d |
Q | 2.563300381342958 | 1.3369e-08 | au |
|
| | Orbit Determination Parameters
Additional Information
|